{"data":{"norad_id":68575,"intl_designator":"2026-072C","name":"KUIPER-00192","alt_names":[],"object_type":"PAYLOAD","status":"ACTIVE","operator":null,"country":"US","launch_date":"2026-04-04","launch_site_code":"AFETR","launch_vehicle":null,"mission":null,"orbit_class":"UNKNOWN","rcs_meters":null,"size_class":null,"mass_kg":null,"dimensions":null,"purposes":[],"wikipedia_slug":null,"has_3d_model":false,"image_url":null,"decayed_at":null,"tle_current":{"epoch":"2026-09-20T00:56:36.072960Z","epoch_age_seconds":106243,"freshness":"FRESH","line1":"1 68575U 26072C   26263.03930640  .00001961  00000+0  28609-3 0  9996","line2":"2 68575  51.9000 133.7113 0001070 101.0749 259.0333 14.79937964 25200","mean_motion":14.79937964,"eccentricity":0.000107,"inclination_deg":51.9,"raan_deg":133.7113,"arg_perigee_deg":101.0749,"mean_anomaly_deg":259.0333,"bstar":0.00028609,"rev_number":2520,"period_min":97.301375802804,"perigee_km":628.77013980625,"apogee_km":630.2697783955,"semimajor_km":7007.6569591009,"source":"CELESTRAK","updated_at":"2026-09-20T09:00:24.318617Z"}}}